Location: Chippewa Lake
(41.0698°N, 81.9010°W)
Time: 21:35:37
(UTC+00:00)

SL-16 R/B - Pass Details

Date: 09 May 2021
Orbit: 985 x 1007 km, 99.5° (Epoch: 17 June)

Event Time Altitude Azimuth Distance (km) Brightness Sun altitude
Exits shadow 08:54:52 14° 261° (W) 2,483 4.1 -13.8°
Maximum altitude 08:55:47 15° 270° (W) 2,456 4.2 -13.7°
Drops below altitude 10° 08:59:06 10° 303° (WNW) 2,788 4.7 -13.2°
Sets 09:02:57 0° 326° (NNW) 3,742 5.6 -12.6°
